[[[{"header":{"parameterUnit":"kt","parameterCategory":2,"dx":1,"dy":1,"la1":30.253999710083008,"la2":30.299108505249023,"lo1":-89.0895004272461,"lo2":-89.04439544677734,"nx":28,"ny":28,"refTime":"2022-10-14T21:00:00:Z","depth":0,"parameterNumber":1,"parameterNumberName":"U-component_of_WINDS"},"data":[-5.6193,-5.625,-5.6213,-5.6263,-5.6238,-5.6266,-5.6264,-5.6259,-5.6245,-5.6276,-5.6287,-5.6257,-5.6229,-5.6235,-5.6247,-5.6233,-5.6241,-5.629,-5.6265,-5.6076,-5.6047,-5.602,-5.6002,-5.6293,-5.6293,-5.6466,-5.6468,-5.6469,-5.6064,-5.604,-5.6054,-5.6042,-5.6055,-5.5985,-5.5971,-5.5987,-5.6014,-5.5997,-5.6005,-5.6029,-5.6044,-5.5997,-5.6006,-5.6035,-5.6002,-5.604,-5.6036,-5.6033,-5.583,-5.5811,-5.6066,-5.6066,-5.6066,-5.6066,-5.6066,-5.6066,-5.582,-5.5856,-5.5825,-5.5839,-5.5823,-5.5816,-5.5844,-5.5802,-5.5817,-5.5818,-5.5769,-5.58,-5.5775,-5.5765,-5.5752,-5.5776,-5.5727,-5.5756,-5.5763,-5.5771,-5.5787,-5.5544,-5.5775,-5.5774,-5.5774,-5.5773,-5.5772,0,-5.5628,-5.5593,-5.5602,-5.5602,-5.561,-5.5605,-5.5594,-5.5611,-5.5522,-5.5538,-5.5557,-5.5562,-5.5572,-5.5587,-5.5585,-5.5564,-5.5492,-5.548,-5.55,-5.5523,-5.5547,-5.5536,-5.5206,-5.5473,-5.547,-5.5468,-5.5466,-5.5465,-5.5379,-5.5424,-5.5371,-5.5383,-5.5366,-5.5387,-5.5391,-5.5309,-5.5318,-5.5293,-5.5329,-5.5342,-5.5347,-5.5386,-5.5336,-5.5344,-5.5308,-5.5415,-5.5309,-5.5332,-5.531,-5.5308,-5.5313,-5.5436,-5.544,-5.5443,-5.5446,0,-5.5242,-5.5175,-5.5232,-5.5173,-5.516,-5.5213,-5.5163,-5.5196,-5.515,-5.5189,-5.5193,-5.5122,-5.5142,-5.5074,-5.5083,-5.5047,-5.5138,-5.5103,-5.5147,-5.5136,-5.5225,-5.5218,-5.5522,-5.5558,-5.5256,-5.5259,-5.5262,0,-5.5002,-5.5065,-5.496,-5.4996,-5.5064,-5.4976,-5.5046,-5.5012,-5.4986,-5.5015,-5.492,-5.495,-5.4857,-5.4878,-5.4825,-5.4886,-5.4888,-5.4864,-5.4849,-5.4872,-5.4875,-5.4874,-5.486,-5.4812,-5.481,-5.4809,-5.4808,0,-5.4795,-5.481,-5.4868,-5.4861,-5.4802,-5.4833,-5.481,-5.4778,-5.4783,-5.4778,-5.478,-5.4782,-5.4782,-5.4787,-5.4717,-5.4648,-5.479,-5.4681,-5.4766,-5.4768,-5.4799,-5.4798,-5.5086,-5.4806,-5.4805,-5.4805,-5.4804,0,-5.4589,-5.4582,-5.4677,-5.4625,-5.4632,-5.4671,-5.4664,-5.4681,-5.4654,-5.4621,-5.4616,-5.4543,-5.4589,-5.4486,-5.455,-5.4479,-5.4487,-5.4467,-5.4472,-5.447,-5.4356,-5.4528,-5.4809,-5.4836,-5.4473,-5.447,-5.4467,0,-5.4371,-5.4445,-5.4368,-5.4459,-5.4483,-5.4372,-5.4414,-5.4391,-5.435,-5.4366,-5.4321,-5.4341,-5.4249,-5.4244,-5.4285,-5.424,-5.4332,-5.4225,-5.4253,-5.4255,-5.4263,-5.4522,-5.458,-5.4755,-5.4431,-5.4435,-5.4438,0,-5.4191,-5.4115,-5.4136,-5.4123,-5.4075,-5.4094,-5.4143,-5.414,-5.4155,-5.4139,-5.4177,-5.4202,-5.4133,-5.4127,-5.4066,-5.4112,-5.4267,-5.4032,-5.403,-5.4077,-5.4406,-5.4462,-5.4492,-5.4217,-5.4221,-5.4225,-5.4409,0,-5.3897,-5.3923,-5.3977,-5.3948,-5.3951,-5.4003,-5.3923,-5.3937,-5.3877,-5.3831,-5.3886,-5.3846,-5.3844,-5.3858,-5.3799,-5.3926,-5.3893,-5.3819,-5.3711,-5.3882,-5.3941,-5.3965,-5.3631,-5.3627,-5.3624,-5.3622,0,0,-5.3705,-5.3739,-5.3649,-5.3689,-5.3685,-5.3565,-5.3628,-5.3611,-5.3579,-5.358,-5.352,-5.3548,-5.3519,-5.3593,-5.364,-5.3639,-5.3655,-5.3597,-5.3801,-5.3822,-5.3841,-5.3905,-5.3931,-5.3616,-5.3615,-5.3614,-5.3613,0,-5.3579,-5.3547,-5.3608,-5.3585,-5.3548,-5.3494,-5.3509,-5.3451,-5.3423,-5.3474,-5.3374,-5.3398,-5.3421,-5.3403,-5.3397,-5.3587,-5.351,-5.3592,-5.3721,-5.3773,-5.3798,-5.3819,-5.3888,-5.3914,-5.3606,-5.3606,-5.3607,0,-5.3387,-5.3343,-5.3362,-5.3346,-5.332,-5.3346,-5.3214,-5.3247,-5.3266,-5.3132,-5.3183,-5.3151,-5.3119,-5.3199,-5.3231,-5.3177,-5.3383,-5.3302,-5.332,-5.3321,-5.3368,-5.3397,-5.3424,-5.3078,-5.3076,-5.3075,0,0,-5.329,-5.3311,-5.3235,-5.3312,-5.3303,-5.3222,-5.3227,-5.3165,-5.3137,-5.3126,-5.3081,-5.3058,-5.3071,-5.3081,-5.3088,-5.3187,-5.3174,-5.3241,-5.3266,-5.3286,-5.3299,-5.3352,-5.3381,-5.3069,-5.3069,-5.3069,0,0,-5.3242,-5.3156,-5.3098,-5.3176,-5.3153,-5.3083,-5.3134,-5.3062,-5.3059,-5.3044,-5.2942,-5.2932,-5.3005,-5.2976,-5.2909,-5.3048,-5.2944,-5.2958,-5.3064,-5.3094,-5.3118,-5.3123,-5.2766,0,0,0,0,0,-5.3069,-5.3166,-5.3115,-5.3115,-5.3092,-5.3112,-5.3108,-5.3025,-5.2953,-5.2996,-5.2947,-5.2863,-5.2919,-5.2857,-5.2861,-5.2935,-5.2995,-5.3008,-5.302,-5.318,-5.3213,-5.324,0,0,0,0,0,0,-5.3069,-5.307,-5.3112,-5.3047,-5.3041,-5.3107,-5.2967,-5.2947,-5.2946,-5.2929,-5.2875,-5.2861,-5.2792,-5.285,-5.2854,-5.2927,-5.2764,-5.3,-5.3011,-5.3021,-5.3191,-5.3218,-5.3241,0,0,0,0,0,-5.3068,-5.3068,-5.3052,-5.3045,-5.304,-5.2953,-5.2962,-5.2944,-5.2943,-5.2865,-5.2848,-5.288,-5.2796,-5.2794,-5.2852,-5.2927,-5.2761,-5.2763,-5.3007,-5.3016,-5.3024,-5.3204,0,0,0,0,0,0,-5.3067,-5.3053,-5.3049,-5.3044,-5.3001,-5.2948,-5.2936,-5.2943,-5.2876,-5.2861,-5.2864,-5.2852,-5.28,-5.2798,-5.2797,-5.2932,-5.2758,-5.276,-5.2761,-5.3014,-5.3021,-5.3027,0,0,0,0,0,0,-5.3052,-5.305,-5.3046,-5.2995,-5.2984,-5.2943,-5.2933,-5.297,-5.2877,-5.2879,-5.2866,-5.286,-5.2802,-5.2801,-5.28,-5.2861,-5.2756,-5.2758,-5.2759,-5.276,-5.302,-5.3025,0,0,0,0,0,0,-5.305,-5.3048,-5.2996,-5.2987,-5.2977,-5.2919,-5.2974,-5.2955,-5.2832,-5.2884,-5.2818,-5.2812,-5.2808,-5.2805,-5.2803,-5.2865,-5.2862,-5.2756,-5.2757,-5.2758,-5.2759,0,0,0,0,0,0,0,-5.3048,-5.3079,-5.3076,-5.2981,-5.2971,-5.3002,-5.3,-5.2999,-5.283,-5.2825,-5.282,-5.2815,-5.2745,-5.2747,-5.2749,-5.2868,0,0,-5.2756,-5.2757,0,0,0,0,0,0,0,0,-5.3078,-5.3079,-5.3076,-5.3075,-5.3074,-5.3001,-5.3,-5.2999,-5.2829,-5.2825,-5.2821,-5.2817,-5.2746,-5.2748,-5.2749,0,0,0,0,0,0,0,0,0,0,0,0,0,0,0,-5.3076,-5.3075,0,-5.3001,-5.3,-5.3,-5.2829,-5.2825,-5.2822,-5.2818,-5.2746,-5.2748,-5.2749,0,0,0,0,0,0,0,0,0,0,0,0,0,0,0,0,0,0,0,0,0,0,0,0,0,0,0,0,0,0,0,0,0,0,0,0,0,0,0,0,0,0,0,0,0,0,0,0,0,0,0,0,0,0,0,0,0,0,0,0,0,0,0,0,0,0,0,0,0]}],[{"header":{"parameterUnit":"kt","parameterCategory":2,"dx":1,"dy":1,"la1":30.253999710083008,"la2":30.299108505249023,"lo1":-89.0895004272461,"lo2":-89.04439544677734,"nx":28,"ny":28,"refTime":"2022-10-14T21:00:00:Z","depth":0,"parameterNumber":2,"parameterNumberName":"V-component_of_WINDS"},"data":[2.712,2.7035,2.7055,2.6967,2.6969,2.6912,2.6897,2.688,2.6871,2.6803,2.6767,2.6776,2.6772,2.6732,2.6692,2.6697,2.6677,2.6634,2.6646,2.6826,2.6852,2.6876,2.6898,2.663,2.663,2.6457,2.6456,2.6454,2.7251,2.7254,2.7213,2.7187,2.7152,2.7206,2.7189,2.7155,2.7101,2.7089,2.7054,2.6995,2.695,2.6961,2.6919,2.6878,2.6899,2.6865,2.6867,2.6865,2.7059,2.7082,2.6849,2.6849,2.6849,2.6849,2.6849,2.6849,2.7496,2.7444,2.7441,2.7397,2.7388,2.737,2.7323,2.7337,2.7296,2.7257,2.7287,2.7225,2.7215,2.7174,2.7164,2.7115,2.7156,2.7123,2.7114,2.7105,2.7092,2.7338,2.7109,2.711,2.711,2.7111,2.7112,0,2.7681,2.7701,2.7663,2.7631,2.76,2.7576,2.7557,2.7529,2.7576,2.7539,2.7488,2.7461,2.7407,2.7359,2.7324,2.732,2.7368,2.7376,2.7353,2.7337,2.7327,2.733,2.7642,2.7381,2.7384,2.7386,2.7387,2.7388,2.7927,2.7865,2.787,2.7841,2.7836,2.7787,2.7762,2.7808,2.7779,2.7761,2.7712,2.7665,2.763,2.7542,2.7555,2.7513,2.7535,2.7434,2.7529,2.7517,2.7532,2.7534,2.7528,2.7413,2.741,2.7407,2.7405,0,2.8064,2.8097,2.8006,2.8017,2.8018,2.7949,2.7957,2.7906,2.7925,2.7857,2.7843,2.787,2.7817,2.7848,2.7792,2.7809,2.7693,2.7717,2.7697,2.7703,2.7614,2.7621,2.7322,2.7284,2.7565,2.7562,2.756,0,2.8286,2.8202,2.8256,2.8201,2.8109,2.8159,2.8065,2.8072,2.8065,2.8012,2.8075,2.8023,2.807,2.8021,2.8046,2.7957,2.7947,2.7953,2.796,2.7946,2.7945,2.7928,2.7939,2.7981,2.7982,2.7984,2.7985,0,2.8495,2.8426,2.8338,2.8327,2.8328,2.8285,2.8284,2.8276,2.825,2.8221,2.8204,2.8165,2.8143,2.8112,2.8144,2.8207,2.8036,2.8129,2.8042,2.8041,2.8,2.8001,2.7732,2.7987,2.7987,2.7988,2.7988,0,2.8679,2.8652,2.8519,2.8523,2.8502,2.8443,2.8411,2.8368,2.8355,2.8367,2.8344,2.8388,2.8314,2.8405,2.8302,2.8376,2.835,2.8351,2.8345,2.8337,2.8437,2.8279,2.8021,2.7994,2.8334,2.8337,2.834,0,2.8909,2.8784,2.8827,2.8699,2.8646,2.8721,2.8657,2.8644,2.8656,2.8611,2.8623,2.857,2.8645,2.8632,2.8578,2.8587,2.8491,2.8601,2.853,2.8527,2.853,2.8295,2.8248,2.8075,2.8377,2.8373,2.837,0,2.909,2.9095,2.9069,2.9059,2.9051,2.9006,2.8932,2.8892,2.886,2.8838,2.8776,2.8703,2.8756,2.8733,2.8764,2.8706,2.8557,2.8769,2.877,2.8728,2.8399,2.8355,2.8326,2.8591,2.8586,2.8583,2.84,0,2.9358,2.93,2.9233,2.9207,2.9178,2.91,2.9134,2.9099,2.9133,2.9147,2.9056,2.9051,2.9007,2.8982,2.9014,2.8871,2.8899,2.8955,2.9043,2.8889,2.8829,2.8805,2.913,2.9132,2.9135,2.9137,0,0,2.9568,2.9486,2.9534,2.9465,2.9443,2.9522,2.9435,2.9422,2.9393,2.9375,2.9426,2.932,2.9313,2.9198,2.9153,2.9135,2.9111,2.9163,2.8962,2.8943,2.8925,2.8861,2.8835,2.9141,2.9142,2.9143,2.9143,0,2.9673,2.967,2.9585,2.9575,2.9561,2.9581,2.9561,2.956,2.9565,2.9477,2.9539,2.9488,2.9402,2.9386,2.9366,2.918,2.9227,2.9164,2.9052,2.8985,2.8962,2.8943,2.8874,2.885,2.9149,2.9149,2.9148,0,2.9857,2.9859,2.9822,2.9777,2.9768,2.9711,2.9813,2.9748,2.9705,2.979,2.97,2.9701,2.9682,2.9569,2.952,2.9563,2.9331,2.941,2.9396,2.939,2.9327,2.9299,2.9275,2.9594,2.9596,2.9597,0,0,2.9942,2.9889,2.9904,2.9802,2.9792,2.982,2.9793,2.9824,2.9808,2.9801,2.9803,2.9782,2.9733,2.9699,2.9654,2.9526,2.9524,2.9464,2.9443,2.9425,2.941,2.9342,2.9315,2.9603,2.9603,2.9603,0,0,2.9982,2.9996,3.0035,2.9921,2.9905,2.9911,2.9846,2.9892,2.9856,2.9868,2.9915,2.9911,2.9807,2.9804,2.9873,2.9685,2.9772,2.9756,2.969,2.9664,2.9643,2.9645,2.9974,0,0,0,0,0,3.0107,2.9995,3.003,3.0016,2.9958,2.9892,2.9885,2.9923,2.9984,2.9932,2.9941,2.9995,2.9851,2.9913,2.9897,2.9818,2.9672,2.966,2.9648,2.9534,2.9506,2.9483,0,0,0,0,0,0,3.0102,3.0085,3.0033,3.0034,3.0021,2.9896,3.0009,3.0016,2.9991,3.0003,2.9992,2.9995,3.0024,2.9924,2.9909,2.9833,2.9979,2.9667,2.9657,2.9647,2.9524,2.9502,2.9482,0,0,0,0,0,3.0098,3.0084,2.9981,3.0036,3.0025,3.0049,3.0013,3.002,3.0001,3.0014,3.0019,3.0032,3.0021,3.0011,2.9915,2.9839,2.9989,2.9984,2.9661,2.9652,2.9645,2.9513,0,0,0,0,0,0,3.0095,3.0089,2.998,2.9978,3.0081,3.0057,3.0055,3.0024,3.0015,3.0019,3.0057,3.0067,3.0017,3.001,3.0002,2.9839,2.9998,2.9992,2.9989,2.9654,2.9648,2.9642,0,0,0,0,0,0,3.0097,3.0087,2.9979,3.0034,3.0039,3.0064,3.0061,2.9985,3.0014,3.0059,3.0066,3.0061,3.0029,3.0009,3.0003,2.9882,3.0005,2.9999,2.9995,2.9993,2.9649,2.9644,0,0,0,0,0,0,3.0093,3.0085,3.0035,3.0038,3.0043,3.0023,2.9997,2.9934,3.0064,3.0058,3.0077,3.0082,3.0026,3.002,3.0003,2.9884,2.9883,3.0005,3.0001,2.9998,2.9996,0,0,0,0,0,0,0,3.009,3.0139,2.9992,3.0042,3.0046,2.9959,2.9959,2.9958,3.0065,3.007,3.0075,3.008,3.0037,3.0031,3.0025,2.9886,0,0,3.0005,3.0003,0,0,0,0,0,0,0,0,3.0143,3.014,2.9992,2.9992,2.9992,2.9959,2.9959,2.9958,3.0066,3.007,3.0074,3.0078,3.0035,3.003,3.0025,0,0,0,0,0,0,0,0,0,0,0,0,0,0,0,2.9992,2.9992,0,2.9959,2.9959,2.9958,3.0067,3.007,3.0073,3.0077,3.0034,3.003,3.0026,0,0,0,0,0,0,0,0,0,0,0,0,0,0,0,0,0,0,0,0,0,0,0,0,0,0,0,0,0,0,0,0,0,0,0,0,0,0,0,0,0,0,0,0,0,0,0,0,0,0,0,0,0,0,0,0,0,0,0,0,0,0,0,0,0,0,0,0,0]}]]]